Rutland, VT

7:52 PM EDT on August 19, 2017 (GMT -0400)
Rutland State

Weather History for KRUT - November, 2011

Change the Weather History Date:

Tuesday, November 8, 2011

  Actual Average Record
Temperature  
Mean Temperature 51 °F -  
Max Temperature 63 °F - 71 °F (1975)
Min Temperature 39 °F - 15 °F (1992)
Degree Days  
Heating Degree Days 14    
Month to date heating degree days 187  
Since 1 July heating degree days 823  
Cooling Degree Days 0    
Month to date cooling degree days 0  
Year to date cooling degree days 348  
Moisture  
Dew Point 42 °F    
Average Humidity 72    
Maximum Humidity 92    
Minimum Humidity 52    
Precipitation  
Precipitation 0.00 in - 0.82 in (2006)
Month to date precipitation 0.00  
Year to date precipitation 30.37  
Sea Level Pressure  
Sea Level Pressure 30.22 in    
Wind  
Wind Speed 5 mph (SE)    
Max Wind Speed 10 mph    
Max Gust Speed -    
Visibility 10 miles    
Events      
T = Trace of Precipitation, MM = Missing Value Source: NWS Daily Summary

Daily Weather History Graph

Daily Weather History Graph

Search for Another Location

Airport or City:

Trip Planner

Search our weather history database for the weather conditions in past years. The results will help you decide how hot, cold, wet, or windy it might be!

Date:

Astronomy

Nov. 08, 2011 Rise Set
Actual Time 6:36 AM EST 4:34 PM EST
Civil Twilight 6:05 AM EST 5:04 PM EST
Nautical Twilight 5:31 AM EST 5:38 PM EST
Astronomical Twilight 4:58 AM EST 6:12 PM EST
Moon 3:14 PM EST (11/8) 4:30 AM EST (11/8)
Length of Visible Light 10h 58m
Length of Day
9h 58m
Waxing Gibbous, 96% of the Moon is Illuminated
Nov 8
Waxing Gibbous
Nov 10
Full
Nov 18
Last Quarter
Nov 25
New
Dec 2
First Quarter

Hourly Weather History & Observations

Time (EST) Temp. Windchill Dew Point Humidity Pressure Visibility Wind Dir Wind Speed Gust Speed Precip Events Conditions
12:15 AM 41.0 °F 39.0 °F 35.6 °F 81% 30.20 in 10.0 mi SE 3.5 mph - N/A   Clear
12:35 AM 39.2 °F - 35.6 °F 87% 30.21 in 10.0 mi Calm Calm - N/A   Clear
12:55 AM 41.0 °F 38.0 °F 35.6 °F 81% 30.21 in 10.0 mi SE 4.6 mph - N/A   Partly Cloudy
1:15 AM 41.0 °F 39.0 °F 35.6 °F 81% 30.21 in 10.0 mi ESE 3.5 mph - N/A   Clear
1:55 AM 39.2 °F - 35.6 °F 87% 30.23 in 10.0 mi Calm Calm - N/A   Overcast
2:15 AM 41.0 °F 36.4 °F 37.4 °F 87% 30.22 in 10.0 mi SE 6.9 mph - N/A   Overcast
2:35 AM 41.0 °F 36.4 °F 37.4 °F 87% 30.22 in 10.0 mi SE 6.9 mph - N/A   Overcast
3:15 AM 42.8 °F 38.0 °F 35.6 °F 76% 30.22 in 10.0 mi SE 8.1 mph - N/A   Mostly Cloudy
3:35 AM 41.0 °F 35.2 °F 37.4 °F 87% 30.22 in 10.0 mi SE 9.2 mph - N/A   Partly Cloudy
4:15 AM 41.0 °F 35.8 °F 37.4 °F 87% 30.23 in 10.0 mi SE 8.1 mph - N/A   Partly Cloudy
4:35 AM 41.0 °F 35.8 °F 37.4 °F 87% 30.23 in 10.0 mi SE 8.1 mph - N/A   Clear
5:15 AM 41.0 °F - 37.4 °F 87% 30.23 in 10.0 mi Calm Calm - N/A   Clear
5:35 AM 39.2 °F 35.9 °F 35.6 °F 87% 30.23 in 10.0 mi ESE 4.6 mph - N/A   Clear
5:55 AM 39.2 °F - 35.6 °F 87% 30.23 in 10.0 mi Calm Calm - N/A   Clear
6:15 AM 39.2 °F 35.9 °F 35.6 °F 87% 30.23 in 9.0 mi SE 4.6 mph - N/A   Clear
6:55 AM 39.2 °F - 37.4 °F 93% 30.23 in 8.0 mi Calm Calm - N/A   Clear
7:15 AM 39.2 °F 34.2 °F 37.4 °F 93% 30.24 in 9.0 mi SE 6.9 mph - N/A   Clear
7:35 AM 42.8 °F 40.1 °F 39.2 °F 87% 30.25 in 9.0 mi SE 4.6 mph - N/A   Clear
7:55 AM 42.8 °F 38.6 °F 39.2 °F 87% 30.26 in 10.0 mi SE 6.9 mph - N/A   Clear
8:15 AM 44.6 °F 43.1 °F 39.2 °F 81% 30.26 in 10.0 mi ESE 3.5 mph - N/A   Clear
8:35 AM 46.4 °F 45.2 °F 41.0 °F 81% 30.26 in 10.0 mi SE 3.5 mph - N/A   Clear
9:15 AM 48.2 °F - 42.8 °F 82% 30.25 in 10.0 mi West 3.5 mph - N/A   Clear
9:35 AM 51.8 °F - 44.6 °F 76% 30.26 in 10.0 mi Calm Calm - N/A   Clear
9:55 AM 53.6 °F - 44.6 °F 72% 30.25 in 10.0 mi Calm Calm - N/A   Clear
10:15 AM 55.4 °F - 44.6 °F 67% 30.25 in 10.0 mi Calm Calm - N/A   Clear
11:15 AM 57.2 °F - 46.4 °F 67% 30.23 in 10.0 mi Calm Calm - N/A   Mostly Cloudy
11:55 AM 60.8 °F - 46.4 °F 59% 30.21 in 10.0 mi NE 3.5 mph - N/A   Scattered Clouds
12:15 PM 60.8 °F - 46.4 °F 59% 30.21 in 10.0 mi Calm Calm - N/A   Overcast
12:35 PM 60.8 °F - 46.4 °F 59% 30.20 in 10.0 mi Calm Calm - N/A   Overcast
12:55 PM 62.6 °F - 44.6 °F 52% 30.20 in 10.0 mi NNW 4.6 mph - N/A   Overcast
1:15 PM 62.6 °F - 46.4 °F 55% 30.20 in 10.0 mi NNW 6.9 mph - N/A   Overcast
1:35 PM 62.6 °F - 46.4 °F 55% 30.20 in 10.0 mi West 5.8 mph - N/A   Overcast
1:55 PM 62.6 °F - 46.4 °F 55% 30.20 in 10.0 mi WNW 5.8 mph - N/A   Overcast
2:15 PM 62.6 °F - 46.4 °F 55% 30.19 in 10.0 mi North 4.6 mph - N/A   Overcast
2:35 PM 62.6 °F - 46.4 °F 55% 30.20 in 10.0 mi WNW 3.5 mph - N/A   Overcast
2:55 PM 62.6 °F - 46.4 °F 55% 30.20 in 10.0 mi Calm Calm - N/A   Overcast
3:15 PM 62.6 °F - 46.4 °F 55% 30.20 in 10.0 mi West 4.6 mph - N/A   Overcast
3:55 PM 60.8 °F - 46.4 °F 59% 30.20 in 10.0 mi WSW 5.8 mph - N/A   Overcast
4:15 PM 60.8 °F - 46.4 °F 59% 30.20 in 10.0 mi West 5.8 mph - N/A   Overcast
4:35 PM 60.8 °F - 46.4 °F 59% 30.20 in 10.0 mi WSW 4.6 mph - N/A   Overcast
4:55 PM 57.2 °F - 46.4 °F 67% 30.20 in 10.0 mi SSW 4.6 mph - N/A   Overcast
5:15 PM 57.2 °F - 46.4 °F 67% 30.20 in 10.0 mi Calm Calm - N/A   Overcast
5:35 PM 57.2 °F - 46.4 °F 67% 30.21 in 10.0 mi Calm Calm - N/A   Overcast
5:55 PM 55.4 °F - 46.4 °F 72% 30.20 in 10.0 mi ESE 5.8 mph - N/A   Mostly Cloudy
6:15 PM 55.4 °F - 46.4 °F 72% 30.21 in 10.0 mi ESE 4.6 mph - N/A   Overcast
6:35 PM 55.4 °F - 46.4 °F 72% 30.21 in 10.0 mi ESE 8.1 mph - N/A   Mostly Cloudy
7:15 PM 53.6 °F - 46.4 °F 77% 30.22 in 10.0 mi SE 5.8 mph - N/A   Clear
7:35 PM 51.8 °F - 46.4 °F 82% 30.22 in 10.0 mi SE 8.1 mph - N/A   Clear
7:55 PM 51.8 °F - 46.4 °F 82% 30.21 in 10.0 mi ESE 10.4 mph - N/A   Clear
8:15 PM 51.8 °F - 44.6 °F 76% 30.22 in 10.0 mi SE 10.4 mph - N/A   Clear
8:55 PM 50.0 °F - 44.6 °F 82% 30.22 in 10.0 mi SE 9.2 mph - N/A   Clear
9:35 PM 50.0 °F - 44.6 °F 82% 30.22 in 10.0 mi SSE 10.4 mph - N/A   Clear
9:55 PM 50.0 °F - 44.6 °F 82% 30.21 in 10.0 mi SE 10.4 mph - N/A   Clear
10:15 PM 48.2 °F - 44.6 °F 87% 30.21 in 10.0 mi SE 6.9 mph - N/A   Clear
11:15 PM 48.2 °F - 42.8 °F 82% 30.20 in 10.0 mi SSE 6.9 mph - N/A   Clear
11:35 PM 48.2 °F - 44.6 °F 87% 30.20 in 10.0 mi SE 9.2 mph - N/A   Clear